Weather in Monastirishe

Ukraine / Cherkassi District     48°59′41″N   29°48′40″E
temp.,
°C
wind,
m/s
gust,
m/s
humid.,
%
clouds,
%
prec.,
mm/h
press.,
hPa
HPBL,
m
17 may, tue
tue1700:00+9nnw349052 0.0 101853
03:00+7nne227923 0.0 101818
06:00+8nnw1173100 0.0 101812
09:00+13wnw2254100 0.0 1017348
12:00+17wnw46405 0.0 10161977
15:00+19wnw693791 0.0 10142687
18:00+17nnw6852100 0.0 1013969
21:00+12nnw4955100 0.0 1014321
18 may, wed
wed1800:00+9n61153100 0.0 1015527
03:00+6nnw51165100 0.0 1015323
06:00+4nnw613815 0.0 1016544
09:00+6nnw81170100 0.0 10181017
12:00+6nnw71187100 0.2 10191082
15:00+6nnw81290100 0.5 1020943
18:00+9n8147934 0.1 10211159
21:00+9n71476100 0.1 1023748
19 may, thu
thu1900:00+9nnw61272100 0.1 1024596
03:00+7nnw410825 0.1 1025330
06:00+4nw410910 0.0 1027212
09:00+12nnw69621 0.0 1027755
12:00+16nnw67495 0.0 10271606
15:00+18nnw67455 0.0 10261744
18:00+17nw574947 0.0 10251646
21:00+12wnw3571100 0.0 102662
20 may, fri
fri2000:00+10wnw34745 0.0 102658
03:00+8wnw34855 0.0 102646
06:00+8w338398 0.0 102639
09:00+15wsw3459100 0.0 1025392
12:00+19wsw5544100 0.0 10241135
15:00+21wsw6739100 0.0 10211421
18:00+21wsw5848100 0.0 10201240
21:00+15sw486242 0.0 1018122
21 may, sat
sat2100:00+13sw4877100 0.0 1017123
03:00+13wsw41075100 0.0 1015166
06:00+13wsw487675 0.0 1014137
09:00+19w5858100 0.0 1012423
12:00+23wsw7949100 0.0 10111246
15:00+21w6125888 0.0 10101180
18:00+22wnw7116419 0.1 10081412
21:00+17wnw410839 0.4 1009277